User: anonymous   Login
Location: Eckley
(40.9930°N, 75.8630°W)
Time: 23:11:31
(UTC-04:00)
Language:

Cosmos 2221 Rocket - Orbit

View from above orbital plane
View from above orbital plane
View from above satellite
View from above satellite

Ground track
Ground track

The orbit data is extracted from the following two-line orbital elements,

1 22237U 92080B   16274.21863307  .00000167  00000-0  19777-4 0  9994
2 22237  82.5152 359.5485 0019129 339.9126  49.7358 14.78282689285034
Epoch (UTC): 30 September 2016 05:14:49
Eccentricity: 0.0019129
inclination: 82.5152°
perigee height: 621 km
apogee height: 648 km
right ascension of ascending node: 359.5485°
argument of perigee: 339.9126°
revolutions per day: 14.78282689
mean anomaly at epoch: 49.7358°
orbit number at epoch: 28503

The dashed part of the orbit path shows where the satellite is in the earth's shadow,  

DLR